Time,TemperatureF,DewpointF,PressureIn,WindDirection,WindDirectionDegrees,WindSpeedMPH,WindSpeedGustMPH,Humidity,HourlyPrecipIn,Conditions,Clouds,dailyrainin,SoftwareType,DateUTC
2014-12-21 00:03:00,29.5,26.1,30.19,SE,136,0.0,3.0,87,0.00,,,0.00,Wunderground v.1.15,2014-12-21 06:03:00,
2014-12-21 00:09:00,29.5,26.1,30.19,SE,130,0.0,3.0,87,0.00,,,0.00,Wunderground v.1.15,2014-12-21 06:09:00,
2014-12-21 00:14:00,29.5,26.1,30.19,SE,130,0.0,0.0,87,0.00,,,0.00,Wunderground v.1.15,2014-12-21 06:14:00,
2014-12-21 00:20:00,29.7,26.3,30.19,SE,130,0.0,2.0,87,0.00,,,0.00,Wunderground v.1.15,2014-12-21 06:20:00,
2014-12-21 00:25:00,29.7,26.3,30.19,ESE,119,1.0,2.0,87,0.00,,,0.00,Wunderground v.1.15,2014-12-21 06:25:00,
2014-12-21 00:31:00,29.8,26.4,30.19,ESE,107,0.0,1.0,87,0.00,,,0.00,Wunderground v.1.15,2014-12-21 06:31:00,
2014-12-21 00:37:00,29.8,26.4,30.19,SSE,150,1.0,2.0,87,0.00,,,0.00,Wunderground v.1.15,2014-12-21 06:37:00,
2014-12-21 00:42:00,29.8,26.4,30.19,ESE,121,1.0,1.0,87,0.00,,,0.00,Wunderground v.1.15,2014-12-21 06:42:00,
2014-12-21 00:48:00,30.0,26.6,30.19,SSE,164,0.0,1.0,87,0.00,,,0.00,Wunderground v.1.15,2014-12-21 06:48:00,
2014-12-21 00:53:00,30.0,26.6,30.19,SSE,162,0.0,0.0,87,0.00,,,0.00,Wunderground v.1.15,2014-12-21 06:53:00,
2014-12-21 00:59:00,30.0,26.6,30.19,SSE,160,0.0,0.0,87,0.00,,,0.00,Wunderground v.1.15,2014-12-21 06:59:00,
2014-12-21 01:04:00,30.0,26.6,30.19,SSE,157,0.0,4.0,87,0.00,,,0.00,Wunderground v.1.15,2014-12-21 07:04:00,
2014-12-21 01:10:00,30.1,26.7,30.19,SSE,161,0.0,0.0,87,0.00,,,0.00,Wunderground v.1.15,2014-12-21 07:10:00,
2014-12-21 01:16:00,30.1,26.7,30.19,SE,126,1.0,3.0,87,0.00,,,0.00,Wunderground v.1.15,2014-12-21 07:16:00,
2014-12-21 01:21:00,30.1,26.7,30.19,SE,126,1.0,1.0,87,0.00,,,0.00,Wunderground v.1.15,2014-12-21 07:21:00,
2014-12-21 01:27:00,30.1,26.7,30.19,SE,130,0.0,1.0,87,0.00,,,0.00,Wunderground v.1.15,2014-12-21 07:27:00,
2014-12-21 01:32:00,30.1,26.7,30.19,SSE,164,0.0,0.0,87,0.00,,,0.00,Wunderground v.1.15,2014-12-21 07:32:00,
2014-12-21 01:37:00,30.1,26.7,30.19,SSE,152,0.0,0.0,87,0.00,,,0.00,Wunderground v.1.15,2014-12-21 07:37:00,
2014-12-21 01:43:00,30.3,26.9,30.19,SSE,150,0.0,1.0,87,0.00,,,0.00,Wunderground v.1.15,2014-12-21 07:43:00,
2014-12-21 01:48:00,30.3,26.9,30.19,ESE,123,0.0,2.0,87,0.00,,,0.00,Wunderground v.1.15,2014-12-21 07:48:00,
2014-12-21 01:54:00,30.3,26.9,30.19,ESE,123,0.0,0.0,87,0.00,,,0.00,Wunderground v.1.15,2014-12-21 07:54:00,
2014-12-21 02:00:00,30.3,26.9,30.19,ESE,123,0.0,0.0,87,0.00,,,0.00,Wunderground v.1.15,2014-12-21 08:00:00,
2014-12-21 02:06:00,30.3,26.9,30.19,SE,133,0.0,3.0,87,0.00,,,0.00,Wunderground v.1.15,2014-12-21 08:06:00,
2014-12-21 02:11:00,30.3,26.9,30.19,SE,133,0.0,0.0,87,0.00,,,0.00,Wunderground v.1.15,2014-12-21 08:11:00,
2014-12-21 02:17:00,30.3,26.9,30.19,SE,133,0.0,0.0,87,0.00,,,0.00,Wunderground v.1.15,2014-12-21 08:17:00,
2014-12-21 02:22:00,30.4,27.0,30.19,SE,133,0.0,1.0,87,0.00,,,0.00,Wunderground v.1.15,2014-12-21 08:22:00,
2014-12-21 02:28:00,30.4,27.3,30.19,SE,133,0.0,1.0,88,0.00,,,0.00,Wunderground v.1.15,2014-12-21 08:28:00,
2014-12-21 02:33:00,30.4,27.3,30.19,SE,133,0.0,0.0,88,0.00,,,0.00,Wunderground v.1.15,2014-12-21 08:33:00,
2014-12-21 02:39:00,30.4,27.3,30.19,SE,127,0.0,2.0,88,0.00,,,0.00,Wunderground v.1.15,2014-12-21 08:39:00,
2014-12-21 02:44:00,30.4,27.3,30.19,SE,127,0.0,0.0,88,0.00,,,0.00,Wunderground v.1.15,2014-12-21 08:44:00,
2014-12-21 02:50:00,30.4,27.3,30.19,SE,127,0.0,0.0,88,0.00,,,0.00,Wunderground v.1.15,2014-12-21 08:50:00,
2014-12-21 02:56:00,30.6,27.5,30.19,SE,124,0.0,1.0,88,0.00,,,0.00,Wunderground v.1.15,2014-12-21 08:56:00,
2014-12-21 03:01:00,30.6,27.5,30.18,SE,124,0.0,1.0,88,0.00,,,0.00,Wunderground v.1.15,2014-12-21 09:01:00,
2014-12-21 03:07:00,30.6,27.5,30.18,SE,134,0.0,3.0,88,0.00,,,0.00,Wunderground v.1.15,2014-12-21 09:07:00,
2014-12-21 03:12:00,30.6,27.5,30.18,SE,130,1.0,1.0,88,0.00,,,0.00,Wunderground v.1.15,2014-12-21 09:12:00,
2014-12-21 03:18:00,30.6,27.5,30.17,SE,138,0.0,1.0,88,0.00,,,0.00,Wunderground v.1.15,2014-12-21 09:18:00,
2014-12-21 03:23:00,30.6,27.5,30.17,ESE,106,1.0,2.0,88,0.00,,,0.00,Wunderground v.1.15,2014-12-21 09:23:00,
2014-12-21 03:29:00,30.6,27.5,30.16,ESE,121,1.0,2.0,88,0.00,,,0.00,Wunderground v.1.15,2014-12-21 09:29:00,
2014-12-21 03:35:00,30.6,27.5,30.16,ESE,119,1.0,3.0,88,0.00,,,0.00,Wunderground v.1.15,2014-12-21 09:35:00,
2014-12-21 03:40:00,30.6,27.5,30.16,ESE,117,2.0,3.0,88,0.00,,,0.00,Wunderground v.1.15,2014-12-21 09:40:00,
2014-12-21 03:46:00,30.6,27.5,30.16,SE,127,1.0,3.0,88,0.00,,,0.00,Wunderground v.1.15,2014-12-21 09:46:00,
2014-12-21 03:52:00,30.7,27.8,30.16,ESE,119,1.0,1.0,89,0.00,,,0.00,Wunderground v.1.15,2014-12-21 09:52:00,
2014-12-21 03:58:00,30.7,27.8,30.15,ESE,112,1.0,3.0,89,0.00,,,0.00,Wunderground v.1.15,2014-12-21 09:58:00,
2014-12-21 04:03:00,30.7,27.8,30.15,ESE,121,1.0,3.0,89,0.00,,,0.00,Wunderground v.1.15,2014-12-21 10:03:00,
2014-12-21 04:09:00,30.7,27.8,30.15,SE,145,1.0,3.0,89,0.00,,,0.00,Wunderground v.1.15,2014-12-21 10:09:00,
2014-12-21 04:14:00,30.7,27.8,30.15,SE,130,1.0,2.0,89,0.00,,,0.00,Wunderground v.1.15,2014-12-21 10:14:00,
2014-12-21 04:20:00,30.7,27.8,30.15,SE,145,1.0,2.0,89,0.00,,,0.00,Wunderground v.1.15,2014-12-21 10:20:00,
2014-12-21 04:25:00,30.9,28.0,30.15,SSE,164,2.0,2.0,89,0.00,,,0.00,Wunderground v.1.15,2014-12-21 10:25:00,
2014-12-21 04:31:00,30.9,28.0,30.15,SE,124,1.0,2.0,89,0.00,,,0.00,Wunderground v.1.15,2014-12-21 10:31:00,
2014-12-21 04:37:00,30.9,28.0,30.15,SSE,154,1.0,2.0,89,0.00,,,0.00,Wunderground v.1.15,2014-12-21 10:37:00,
2014-12-21 04:43:00,31.0,28.1,30.15,SE,126,1.0,2.0,89,0.00,,,0.00,Wunderground v.1.15,2014-12-21 10:43:00,
2014-12-21 04:49:00,31.0,28.1,30.15,SE,127,0.0,2.0,89,0.00,,,0.00,Wunderground v.1.15,2014-12-21 10:49:00,
2014-12-21 04:54:00,31.0,28.1,30.15,SE,127,0.0,0.0,89,0.00,,,0.00,Wunderground v.1.15,2014-12-21 10:54:00,
2014-12-21 05:00:00,31.0,28.1,30.15,ESE,106,0.0,0.0,89,0.00,,,0.00,Wunderground v.1.15,2014-12-21 11:00:00,
2014-12-21 05:06:00,31.0,28.1,30.15,ESE,120,1.0,6.0,89,0.00,,,0.00,Wunderground v.1.15,2014-12-21 11:06:00,
2014-12-21 05:11:00,31.0,28.1,30.15,SE,124,1.0,1.0,89,0.00,,,0.00,Wunderground v.1.15,2014-12-21 11:11:00,
2014-12-21 05:16:00,31.0,28.1,30.14,SE,124,0.0,2.0,89,0.00,,,0.00,Wunderground v.1.15,2014-12-21 11:16:00,
2014-12-21 05:22:00,31.0,28.4,30.14,SE,128,1.0,1.0,90,0.00,,,0.00,Wunderground v.1.15,2014-12-21 11:22:00,
2014-12-21 05:27:00,31.0,28.4,30.14,SE,130,0.0,1.0,90,0.00,,,0.00,Wunderground v.1.15,2014-12-21 11:27:00,
2014-12-21 05:32:00,31.0,28.4,30.15,SE,128,0.0,2.0,90,0.00,,,0.00,Wunderground v.1.15,2014-12-21 11:32:00,
2014-12-21 05:38:00,31.0,28.4,30.15,SE,130,1.0,3.0,90,0.00,,,0.00,Wunderground v.1.15,2014-12-21 11:38:00,
2014-12-21 05:43:00,31.2,28.6,30.14,ESE,120,1.0,2.0,90,0.00,,,0.00,Wunderground v.1.15,2014-12-21 11:43:00,
2014-12-21 05:49:00,31.2,28.6,30.14,ESE,106,1.0,5.0,90,0.00,,,0.00,Wunderground v.1.15,2014-12-21 11:49:00,
2014-12-21 05:54:00,31.2,28.6,30.14,ESE,121,2.0,6.0,90,0.00,,,0.00,Wunderground v.1.15,2014-12-21 11:54:00,
2014-12-21 06:00:00,31.3,28.7,30.14,SE,126,2.0,2.0,90,0.00,,,0.00,Wunderground v.1.15,2014-12-21 12:00:00,
2014-12-21 06:05:00,31.3,28.7,30.14,SE,126,1.0,6.0,90,0.00,,,0.00,Wunderground v.1.15,2014-12-21 12:05:00,
2014-12-21 06:11:00,31.3,28.7,30.14,ESE,109,1.0,3.0,90,0.00,,,0.00,Wunderground v.1.15,2014-12-21 12:11:00,
2014-12-21 06:17:00,31.3,28.7,30.14,SE,137,2.0,3.0,90,0.00,,,0.00,Wunderground v.1.15,2014-12-21 12:17:00,
2014-12-21 06:23:00,31.3,28.7,30.14,ESE,112,2.0,5.0,90,0.00,,,0.00,Wunderground v.1.15,2014-12-21 12:23:00,
2014-12-21 06:28:00,31.3,28.7,30.14,SE,131,1.0,5.0,90,0.00,,,0.00,Wunderground v.1.15,2014-12-21 12:28:00,
2014-12-21 06:34:00,31.3,28.7,30.14,SE,134,1.0,1.0,90,0.00,,,0.00,Wunderground v.1.15,2014-12-21 12:34:00,
2014-12-21 06:39:00,31.3,29.0,30.14,SE,124,1.0,3.0,91,0.00,,,0.00,Wunderground v.1.15,2014-12-21 12:39:00,
2014-12-21 06:45:00,31.5,29.2,30.14,ESE,103,1.0,1.0,91,0.00,,,0.00,Wunderground v.1.15,2014-12-21 12:45:00,
2014-12-21 06:52:00,31.5,29.2,30.14,SSE,148,1.0,5.0,91,0.00,,,0.00,Wunderground v.1.15,2014-12-21 12:52:00,
2014-12-21 06:57:00,31.5,29.2,30.14,SE,127,2.0,7.0,91,0.00,,,0.00,Wunderground v.1.15,2014-12-21 12:57:00,
2014-12-21 07:03:00,31.5,29.2,30.14,ESE,109,2.0,7.0,91,0.00,,,0.00,Wunderground v.1.15,2014-12-21 13:03:00,
2014-12-21 07:09:00,31.5,29.2,30.14,ESE,121,2.0,7.0,91,0.00,,,0.00,Wunderground v.1.15,2014-12-21 13:09:00,
2014-12-21 07:14:00,31.6,29.3,30.13,ESE,110,2.0,6.0,91,0.00,,,0.00,Wunderground v.1.15,2014-12-21 13:14:00,
2014-12-21 07:21:00,31.6,29.3,30.13,SE,124,3.0,3.0,91,0.00,,,0.00,Wunderground v.1.15,2014-12-21 13:21:00,
2014-12-21 07:27:00,31.6,29.3,30.13,SSE,148,2.0,3.0,91,0.00,,,0.00,Wunderground v.1.15,2014-12-21 13:27:00,
2014-12-21 07:33:00,31.6,29.3,30.13,SE,124,3.0,3.0,91,0.00,,,0.00,Wunderground v.1.15,2014-12-21 13:33:00,
2014-12-21 07:39:00,31.6,29.3,30.13,ESE,109,3.0,6.0,91,0.00,,,0.00,Wunderground v.1.15,2014-12-21 13:39:00,
2014-12-21 07:44:00,31.6,29.3,30.13,SE,131,3.0,4.0,91,0.00,,,0.00,Wunderground v.1.15,2014-12-21 13:44:00,
2014-12-21 07:50:00,31.6,29.3,30.13,ESE,119,3.0,8.0,91,0.00,,,0.00,Wunderground v.1.15,2014-12-21 13:50:00,
2014-12-21 07:55:00,31.8,29.5,30.13,ESE,102,3.0,4.0,91,0.00,,,0.00,Wunderground v.1.15,2014-12-21 13:55:00,
2014-12-21 08:01:00,31.8,29.5,30.12,SE,145,3.0,8.0,91,0.00,,,0.00,Wunderground v.1.15,2014-12-21 14:01:00,
2014-12-21 08:07:00,31.8,29.5,30.12,SE,127,2.0,8.0,91,0.00,,,0.00,Wunderground v.1.15,2014-12-21 14:07:00,
2014-12-21 08:12:00,31.9,29.6,30.12,ESE,113,2.0,3.0,91,0.00,,,0.00,Wunderground v.1.15,2014-12-21 14:12:00,
2014-12-21 08:18:00,31.9,29.6,30.12,SE,124,3.0,6.0,91,0.00,,,0.00,Wunderground v.1.15,2014-12-21 14:18:00,
2014-12-21 08:23:00,32.1,29.8,30.12,ESE,123,2.0,6.0,91,0.00,,,0.00,Wunderground v.1.15,2014-12-21 14:23:00,
2014-12-21 08:29:00,32.1,29.8,30.12,SE,131,2.0,6.0,91,0.00,,,0.00,Wunderground v.1.15,2014-12-21 14:29:00,
2014-12-21 08:34:00,32.1,29.8,30.12,ESE,123,2.0,6.0,91,0.00,,,0.00,Wunderground v.1.15,2014-12-21 14:34:00,